,,Stat6,,Stat2,,Stat8,,Stat9,,Stat10,,Wind1,,Wind1,
time,status,PA1M_AVG,status,PR1M_SUM,status,RH1M_AVG,status,SR1M_AVG,status,TA1M_AVG,status,W1dAve1m,status,W1sAve1m,
2005-04-23, 00:00:00,VALID,919.217,VALID,0,VALID,100,VALID,-0.101885,VALID,20.1382,VALID,19,VALID,0.062872,
2005-04-23, 00:01:00,VALID,919.192,VALID,0,VALID,100,VALID,-0.101885,VALID,20.1285,VALID,19,VALID,0,
2005-04-23, 00:02:00,VALID,919.178,VALID,0,VALID,100,VALID,-0.118866,VALID,20.0962,VALID,19,VALID,0.0316506,
2005-04-23, 00:03:00,VALID,919.163,VALID,0,VALID,100,VALID,-0.101885,VALID,20.0609,VALID,19,VALID,0.345348,
2005-04-23, 00:04:00,VALID,919.155,VALID,0,VALID,100,VALID,-0.101885,VALID,20.0155,VALID,19,VALID,0.0652902,
2005-04-23, 00:05:00,VALID,919.132,VALID,0,VALID,100,VALID,0.0509425,VALID,20.0142,VALID,19,VALID,0,
2005-04-23, 00:06:00,VALID,919.131,VALID,0,VALID,100,VALID,0.101885,VALID,19.9896,VALID,19,VALID,0,
2005-04-23, 00:07:00,VALID,919.118,VALID,0,VALID,100,VALID,0.0849042,VALID,19.9834,VALID,19,VALID,0,
2005-04-23, 00:08:00,VALID,919.128,VALID,0,VALID,100,VALID,0.101885,VALID,19.9769,VALID,38,VALID,0.260538,
2005-04-23, 00:09:00,VALID,919.118,VALID,0,VALID,100,VALID,0.0849042,VALID,19.9543,VALID,146,VALID,0.758371,
2005-04-23, 00:10:00,VALID,919.116,VALID,0,VALID,100,VALID,0.101885,VALID,19.9344,VALID,161,VALID,0.860904,
2005-04-23, 00:11:00,VALID,919.117,VALID,0,VALID,100,VALID,0.101885,VALID,19.9315,VALID,166,VALID,0.813772,
2005-04-23, 00:12:00,VALID,919.11,VALID,0,VALID,100,VALID,0.101885,VALID,19.932,VALID,164,VALID,0.606957,
2005-04-23, 00:13:00,VALID,919.081,VALID,0,VALID,100,VALID,0.118866,VALID,19.9191,VALID,162,VALID,0.439918,
2005-04-23, 00:14:00,VALID,919.067,VALID,0,VALID,100,VALID,0.101885,VALID,19.8997,VALID,152,VALID,0.554506,
2005-04-23, 00:15:00,VALID,919.055,VALID,0,VALID,100,VALID,0.101885,VALID,19.8736,VALID,136,VALID,0.574591,
2005-04-23, 00:16:00,VALID,919.043,VALID,0,VALID,100,VALID,0.101885,VALID,19.8602,VALID,145,VALID,0.858073,
2005-04-23, 00:17:00,VALID,919.037,VALID,0,VALID,100,VALID,0.101885,VALID,19.8965,VALID,137,VALID,1.0124,
2005-04-23, 00:18:00,VALID,919.035,VALID,0,VALID,100,VALID,0.101885,VALID,19.9086,VALID,126,VALID,0.798147,
2005-04-23, 00:19:00,VALID,919.041,VALID,0,VALID,100,VALID,0.101885,VALID,19.9225,VALID,110,VALID,0.805618,
2005-04-23, 00:20:00,VALID,919.045,VALID,0,VALID,100,VALID,0.0339617,VALID,19.9099,VALID,119,VALID,0.792411,
2005-04-23, 00:21:00,VALID,919.039,VALID,0,VALID,100,VALID,0,VALID,19.9009,VALID,110,VALID,0.696615,
2005-04-23, 00:22:00,VALID,919.049,VALID,0,VALID,100,VALID,-0.0169808,VALID,19.8975,VALID,108,VALID,0.602493,
2005-04-23, 00:23:00,VALID,919.049,VALID,0,VALID,100,VALID,0.0169808,VALID,19.9039,VALID,120,VALID,0.509301,
2005-04-23, 00:24:00,VALID,919.045,VALID,0,VALID,100,VALID,0,VALID,19.8975,VALID,120,VALID,0.602325,
2005-04-23, 00:25:00,VALID,919.041,VALID,0,VALID,100,VALID,0,VALID,19.9009,VALID,118,VALID,0.669792,
2005-04-23, 00:26:00,VALID,919.046,VALID,0,VALID,100,VALID,0,VALID,19.9007,VALID,113,VALID,0.847384,
2005-04-23, 00:27:00,VALID,919.046,VALID,0,VALID,100,VALID,0,VALID,19.9106,VALID,97,VALID,1.17355,
2005-04-23, 00:28:00,VALID,919.05,VALID,0,VALID,100,VALID,0,VALID,19.9099,VALID,99,VALID,1.12593,
2005-04-23, 00:29:00,VALID,919.046,VALID,0,VALID,100,VALID,0,VALID,19.9206,VALID,93,VALID,0.75651,
2005-04-23, 00:30:00,VALID,919.033,VALID,0,VALID,100,VALID,0,VALID,19.8972,VALID,82,VALID,0.952762,
2005-04-23, 00:31:00,VALID,919.007,VALID,0,VALID,100,VALID,0,VALID,19.9004,VALID,73,VALID,0.838663,
2005-04-23, 00:32:00,VALID,918.987,VALID,0,VALID,100,VALID,0,VALID,19.8845,VALID,66,VALID,0.741642,
2005-04-23, 00:33:00,VALID,918.978,VALID,0,VALID,100,VALID,0,VALID,19.8917,VALID,62,VALID,0.879573,
2005-04-23, 00:34:00,VALID,918.958,VALID,0,VALID,100,VALID,0,VALID,19.8783,VALID,51,VALID,0.925145,
2005-04-23, 00:35:00,VALID,918.934,VALID,0,VALID,100,VALID,0,VALID,19.8786,VALID,59,VALID,0.985973,
2005-04-23, 00:36:00,VALID,918.924,VALID,0,VALID,100,VALID,0,VALID,19.8455,VALID,48,VALID,1.19389,
2005-04-23, 00:37:00,VALID,918.917,VALID,0,VALID,100,VALID,0,VALID,19.8557,VALID,46,VALID,1.22443,
2005-04-23, 00:38:00,VALID,918.914,VALID,0,VALID,100,VALID,0.0169808,VALID,19.8627,VALID,48,VALID,1.17674,
2005-04-23, 00:39:00,VALID,918.917,VALID,0,VALID,100,VALID,0,VALID,19.8296,VALID,40,VALID,0.954078,
2005-04-23, 00:40:00,VALID,918.909,VALID,0,VALID,100,VALID,-0.0169808,VALID,19.8267,VALID,39,VALID,0.989901,
2005-04-23, 00:41:00,VALID,918.9,VALID,0,VALID,100,VALID,0,VALID,19.8336,VALID,43,VALID,0.840843,
2005-04-23, 00:42:00,VALID,918.887,VALID,0,VALID,100,VALID,-0.0169808,VALID,19.8331,VALID,51,VALID,0.777616,
2005-04-23, 00:43:00,VALID,918.853,VALID,0,VALID,100,VALID,0,VALID,19.8393,VALID,61,VALID,0.760174,
2005-04-23, 00:44:00,VALID,918.816,VALID,0,VALID,100,VALID,0,VALID,19.8495,VALID,61,VALID,0.689328,
2005-04-23, 00:45:00,VALID,918.783,VALID,0,VALID,100,VALID,0,VALID,19.8587,VALID,64,VALID,0.519903,
2005-04-23, 00:46:00,VALID,918.744,VALID,0,VALID,100,VALID,0,VALID,19.8788,VALID,68,VALID,0.531641,
2005-04-23, 00:47:00,VALID,918.71,VALID,0,VALID,100,VALID,0,VALID,19.8463,VALID,68,VALID,0.488377,
2005-04-23, 00:48:00,VALID,918.702,VALID,0,VALID,100,VALID,0.0169808,VALID,19.8301,VALID,68,VALID,0.148082,
2005-04-23, 00:49:00,VALID,918.714,VALID,0,VALID,100,VALID,0.0169808,VALID,19.8137,VALID,68,VALID,0,
2005-04-23, 00:50:00,VALID,918.731,VALID,0,VALID,100,VALID,-0.0679233,VALID,19.8016,VALID,68,VALID,0.178052,
2005-04-23, 00:51:00,VALID,918.762,VALID,0,VALID,100,VALID,-0.0849042,VALID,19.7887,VALID,116,VALID,0.598722,
2005-04-23, 00:52:00,VALID,918.797,VALID,0,VALID,100,VALID,-0.0679233,VALID,19.7993,VALID,240,VALID,0.768503,
2005-04-23, 00:53:00,VALID,918.824,VALID,0,VALID,100,VALID,-0.0849042,VALID,19.812,VALID,240,VALID,0.654535,
2005-04-23, 00:54:00,VALID,918.837,VALID,0,VALID,100,VALID,-0.101885,VALID,19.8118,VALID,240,VALID,0.409624,
2005-04-23, 00:55:00,VALID,918.848,VALID,0,VALID,100,VALID,-0.101885,VALID,19.7954,VALID,240,VALID,0.176883,
2005-04-23, 00:56:00,VALID,918.831,VALID,0,VALID,100,VALID,-0.0849042,VALID,19.812,VALID,240,VALID,0.40532,
2005-04-23, 00:57:00,VALID,918.825,VALID,0,VALID,100,VALID,-0.101885,VALID,19.8316,VALID,240,VALID,0.277521,
2005-04-23, 00:58:00,VALID,918.824,VALID,0,VALID,100,VALID,-0.101885,VALID,19.8411,VALID,240,VALID,0.00483631,
2005-04-23, 00:59:00,VALID,918.809,VALID,0,VALID,100,VALID,-0.118866,VALID,19.8284,VALID,240,VALID,0.0904796,
2005-04-23, 01:00:00,VALID,918.798,VALID,0,VALID,100,VALID,-0.0849042,VALID,19.8413,VALID,240,VALID,0.449777,
2005-04-23, 01:01:00,VALID,918.789,VALID,0,VALID,100,VALID,-0.101885,VALID,19.8836,VALID,262,VALID,0.468192,
2005-04-23, 01:02:00,VALID,918.792,VALID,0,VALID,100,VALID,-0.101885,VALID,19.8995,VALID,278,VALID,0.468205,
2005-04-23, 01:03:00,VALID,918.805,VALID,0,VALID,100,VALID,-0.118866,VALID,19.9255,VALID,278,VALID,0.414063,
2005-04-23, 01:04:00,VALID,918.816,VALID,0,VALID,100,VALID,-0.101885,VALID,19.9221,VALID,278,VALID,0.492733,
2005-04-23, 01:05:00,VALID,918.843,VALID,0,VALID,100,VALID,-0.0339617,VALID,19.963,VALID,278,VALID,0.653646,
2005-04-23, 01:06:00,VALID,918.854,VALID,0,VALID,100,VALID,0,VALID,19.9824,VALID,278,VALID,0.427689,
2005-04-23, 01:07:00,VALID,918.881,VALID,0,VALID,100,VALID,0.0169808,VALID,19.9854,VALID,278,VALID,0.360795,
2005-04-23, 01:08:00,VALID,918.874,VALID,0,VALID,100,VALID,-0.0169808,VALID,20.0013,VALID,278,VALID,0.0386814,
2005-04-23, 01:09:00,VALID,918.881,VALID,0,VALID,100,VALID,-0.0169808,VALID,19.9789,VALID,278,VALID,0.00181686,
2005-04-23, 01:10:00,VALID,918.87,VALID,0,VALID,100,VALID,0,VALID,19.9757,VALID,278,VALID,0,
2005-04-23, 01:11:00,VALID,918.859,VALID,0,VALID,100,VALID,-0.0169808,VALID,19.9561,VALID,278,VALID,0,
2005-04-23, 01:12:00,VALID,918.828,VALID,0,VALID,100,VALID,0.0169808,VALID,19.924,VALID,278,VALID,0,
2005-04-23, 01:13:00,VALID,918.803,VALID,0,VALID,100,VALID,0,VALID,19.9047,VALID,278,VALID,0,
2005-04-23, 01:14:00,VALID,918.78,VALID,0,VALID,100,VALID,0,VALID,19.8977,VALID,278,VALID,0,
2005-04-23, 01:15:00,VALID,918.759,VALID,0,VALID,100,VALID,0.0509425,VALID,19.8781,VALID,278,VALID,0.0720274,
2005-04-23, 01:16:00,VALID,918.738,VALID,0,VALID,100,VALID,0.0169808,VALID,19.8428,VALID,317,VALID,0.56875,
2005-04-23, 01:17:00,VALID,918.729,VALID,0,VALID,100,VALID,0,VALID,19.7683,VALID,39,VALID,0.763021,
2005-04-23, 01:18:00,VALID,918.708,VALID,0,VALID,100,VALID,0.0169808,VALID,19.7688,VALID,80,VALID,0.844105,
2005-04-23, 01:19:00,VALID,918.698,VALID,0,VALID,100,VALID,0.0339617,VALID,19.7591,VALID,82,VALID,0.750665,
2005-04-23, 01:20:00,VALID,918.69,VALID,0,VALID,100,VALID,0.0339617,VALID,19.7497,VALID,84,VALID,0.78497,
2005-04-23, 01:21:00,VALID,918.667,VALID,0,VALID,100,VALID,0.0169808,VALID,19.73,VALID,84,VALID,0.602108,
2005-04-23, 01:22:00,VALID,918.665,VALID,0,VALID,100,VALID,0,VALID,19.73,VALID,84,VALID,0.584985,
2005-04-23, 01:23:00,VALID,918.671,VALID,0,VALID,100,VALID,-0.0169808,VALID,19.7333,VALID,84,VALID,0.497514,
2005-04-23, 01:24:00,VALID,918.672,VALID,0,VALID,100,VALID,0,VALID,19.7596,VALID,84,VALID,0.338034,
2005-04-23, 01:25:00,VALID,918.677,VALID,0,VALID,100,VALID,0,VALID,19.7432,VALID,84,VALID,0.289621,
2005-04-23, 01:26:00,VALID,918.668,VALID,0,VALID,100,VALID,-0.0339617,VALID,19.7363,VALID,84,VALID,0.454578,
2005-04-23, 01:27:00,VALID,918.658,VALID,0,VALID,100,VALID,0.0169808,VALID,19.7623,VALID,84,VALID,0.653706,
2005-04-23, 01:28:00,VALID,918.648,VALID,0,VALID,100,VALID,0,VALID,19.7656,VALID,85,VALID,0.759301,
2005-04-23, 01:29:00,VALID,918.621,VALID,0,VALID,100,VALID,-0.0509425,VALID,19.7628,VALID,97,VALID,0.837003,
2005-04-23, 01:30:00,VALID,918.604,VALID,0,VALID,100,VALID,0.0169808,VALID,19.7427,VALID,121,VALID,1.02289,
2005-04-23, 01:31:00,VALID,918.569,VALID,0,VALID,100,VALID,0,VALID,19.7785,VALID,117,VALID,0.90189,
2005-04-23, 01:32:00,VALID,918.537,VALID,0,VALID,100,VALID,0,VALID,19.7976,VALID,115,VALID,0.750533,
2005-04-23, 01:33:00,VALID,918.511,VALID,0,VALID,100,VALID,-0.0169808,VALID,19.7844,VALID,115,VALID,0.736719,
2005-04-23, 01:34:00,VALID,918.473,VALID,0,VALID,100,VALID,-0.0339617,VALID,19.7683,VALID,108,VALID,0.893056,
2005-04-23, 01:35:00,VALID,918.446,VALID,0,VALID,100,VALID,0,VALID,19.7559,VALID,106,VALID,0.743676,
2005-04-23, 01:36:00,VALID,918.433,VALID,0,VALID,100,VALID,0,VALID,19.7502,VALID,118,VALID,0.858665,
2005-04-23, 01:37:00,VALID,918.428,VALID,0,VALID,100,VALID,0,VALID,19.7658,VALID,143,VALID,0.915153,
2005-04-23, 01:38:00,VALID,918.425,VALID,0,VALID,100,VALID,0,VALID,19.7271,VALID,133,VALID,0.922805,
2005-04-23, 01:39:00,VALID,918.412,VALID,0,VALID,100,VALID,-0.0169808,VALID,19.7174,VALID,140,VALID,0.927819,
2005-04-23, 01:40:00,VALID,918.418,VALID,0,VALID,100,VALID,0,VALID,19.7206,VALID,133,VALID,1.07688,
2005-04-23, 01:41:00,VALID,918.406,VALID,0,VALID,100,VALID,-0.0339617,VALID,19.7298,VALID,116,VALID,0.793324,
2005-04-23, 01:42:00,VALID,918.405,VALID,0,VALID,100,VALID,-0.0169808,VALID,19.7243,VALID,108,VALID,0.840199,
2005-04-23, 01:43:00,VALID,918.392,VALID,0,VALID,100,VALID,0,VALID,19.701,VALID,109,VALID,1.37691,
2005-04-23, 01:44:00,VALID,918.365,VALID,0,VALID,100,VALID,0,VALID,19.694,VALID,115,VALID,1.34448,
2005-04-23, 01:45:00,VALID,918.368,VALID,0,VALID,100,VALID,0,VALID,19.6811,VALID,114,VALID,1.30469,
2005-04-23, 01:46:00,VALID,918.342,VALID,0,VALID,100,VALID,0,VALID,19.662,VALID,116,VALID,1.4945,
2005-04-23, 01:47:00,VALID,918.319,VALID,0,VALID,100,VALID,-0.0169808,VALID,19.6396,VALID,116,VALID,1.56922,
2005-04-23, 01:48:00,VALID,918.274,VALID,0,VALID,100,VALID,0,VALID,19.6367,VALID,118,VALID,1.49709,
2005-04-23, 01:49:00,VALID,918.245,VALID,0,VALID,100,VALID,0,VALID,19.6359,VALID,112,VALID,1.14898,
2005-04-23, 01:50:00,VALID,918.212,VALID,0,VALID,100,VALID,0,VALID,19.6359,VALID,103,VALID,1.13906,
2005-04-23, 01:51:00,VALID,918.19,VALID,0,VALID,100,VALID,-0.0169808,VALID,19.6426,VALID,99,VALID,1.05398,
2005-04-23, 01:52:00,VALID,918.18,VALID,0,VALID,100,VALID,0.0169808,VALID,19.6359,VALID,98,VALID,0.768403,
2005-04-23, 01:53:00,VALID,918.162,VALID,0,VALID,100,VALID,0,VALID,19.6324,VALID,107,VALID,0.80593,
2005-04-23, 01:54:00,VALID,918.147,VALID,0,VALID,100,VALID,0,VALID,19.6429,VALID,105,VALID,0.506392,
2005-04-23, 01:55:00,VALID,918.125,VALID,0,VALID,100,VALID,0,VALID,19.6463,VALID,110,VALID,1.02734,
2005-04-23, 01:56:00,VALID,918.13,VALID,0,VALID,100,VALID,0,VALID,19.6687,VALID,115,VALID,0.727307,
2005-04-23, 01:57:00,VALID,918.117,VALID,0,VALID,100,VALID,0,VALID,19.6749,VALID,115,VALID,0.857376,
2005-04-23, 01:58:00,VALID,918.128,VALID,0,VALID,100,VALID,-0.0169808,VALID,19.6881,VALID,101,VALID,0.60992,
2005-04-23, 01:59:00,VALID,918.118,VALID,0,VALID,100,VALID,0,VALID,19.6811,VALID,88,VALID,0.521802,
2005-04-23, 02:00:00,VALID,918.143,VALID,0,VALID,100,VALID,-0.0169808,VALID,19.6751,VALID,88,VALID,0.241815,
2005-04-23, 02:01:00,VALID,918.133,VALID,0,VALID,100,VALID,-0.0169808,VALID,19.6655,VALID,88,VALID,0.0703125,
2005-04-23, 02:02:00,VALID,918.133,VALID,0.2,VALID,100,VALID,0.0169808,VALID,19.662,VALID,88,VALID,0.0218395,
2005-04-23, 02:03:00,VALID,918.152,VALID,0,VALID,100,VALID,0,VALID,19.6684,VALID,88,VALID,0,
2005-04-23, 02:04:00,VALID,918.152,VALID,0,VALID,100,VALID,0,VALID,19.6786,VALID,88,VALID,0.0670732,
2005-04-23, 02:05:00,VALID,918.133,VALID,0,VALID,100,VALID,0.0169808,VALID,19.6717,VALID,88,VALID,0.145198,
2005-04-23, 02:06:00,VALID,918.114,VALID,0,VALID,100,VALID,0,VALID,19.6948,VALID,98,VALID,0.506696,
2005-04-23, 02:07:00,VALID,918.116,VALID,0,VALID,100,VALID,-0.0169808,VALID,19.6943,VALID,110,VALID,0.492708,
2005-04-23, 02:08:00,VALID,918.103,VALID,0,VALID,100,VALID,0,VALID,19.7171,VALID,110,VALID,0.443677,
2005-04-23, 02:09:00,VALID,918.097,VALID,0,VALID,100,VALID,0,VALID,19.7171,VALID,123,VALID,0.564732,
2005-04-23, 02:10:00,VALID,918.087,VALID,0,VALID,100,VALID,0,VALID,19.74,VALID,150,VALID,0.642912,
2005-04-23, 02:11:00,VALID,918.095,VALID,0,VALID,100,VALID,0.0169808,VALID,19.7526,VALID,172,VALID,0.450763,
2005-04-23, 02:12:00,VALID,918.101,VALID,0,VALID,100,VALID,-0.0169808,VALID,19.7529,VALID,165,VALID,0.580078,
2005-04-23, 02:13:00,VALID,918.11,VALID,0,VALID,100,VALID,0,VALID,19.7693,VALID,164,VALID,0.5625,
2005-04-23, 02:14:00,VALID,918.101,VALID,0,VALID,100,VALID,0,VALID,19.7656,VALID,164,VALID,0.500744,
2005-04-23, 02:15:00,VALID,918.097,VALID,0,VALID,100,VALID,0,VALID,19.779,VALID,164,VALID,0.409091,
2005-04-23, 02:16:00,VALID,918.065,VALID,0,VALID,100,VALID,0,VALID,19.782,VALID,161,VALID,0.428234,
2005-04-23, 02:17:00,VALID,918.041,VALID,0,VALID,100,VALID,0,VALID,19.7949,VALID,156,VALID,0.455729,
2005-04-23, 02:18:00,VALID,918.027,VALID,0,VALID,100,VALID,0,VALID,19.7882,VALID,133,VALID,0.830433,
2005-04-23, 02:19:00,VALID,918,VALID,0,VALID,100,VALID,-0.0169808,VALID,19.8073,VALID,118,VALID,0.793445,
2005-04-23, 02:20:00,VALID,917.992,VALID,0,VALID,100,VALID,0,VALID,19.8304,VALID,117,VALID,0.745821,
2005-04-23, 02:21:00,VALID,917.989,VALID,0,VALID,100,VALID,0,VALID,19.8364,VALID,112,VALID,0.727679,
2005-04-23, 02:22:00,VALID,917.985,VALID,0,VALID,100,VALID,0,VALID,19.8465,VALID,104,VALID,0.349254,
2005-04-23, 02:23:00,VALID,917.981,VALID,0,VALID,100,VALID,0,VALID,19.8498,VALID,104,VALID,0.603849,
2005-04-23, 02:24:00,VALID,917.997,VALID,0,VALID,100,VALID,0,VALID,19.846,VALID,104,VALID,0.441964,
2005-04-23, 02:25:00,VALID,917.988,VALID,0,VALID,100,VALID,0.0169808,VALID,19.8428,VALID,107,VALID,0.555959,
2005-04-23, 02:26:00,VALID,917.986,VALID,0,VALID,100,VALID,0.0509425,VALID,19.8522,VALID,126,VALID,0.70277,
2005-04-23, 02:27:00,VALID,917.98,VALID,0,VALID,100,VALID,0,VALID,19.8426,VALID,112,VALID,0.548785,
2005-04-23, 02:28:00,VALID,917.964,VALID,0,VALID,100,VALID,-0.0169808,VALID,19.8627,VALID,99,VALID,0.665707,
2005-04-23, 02:29:00,VALID,917.964,VALID,0,VALID,100,VALID,0,VALID,19.856,VALID,116,VALID,0.407609,
2005-04-23, 02:30:00,VALID,917.967,VALID,0,VALID,100,VALID,0,VALID,19.8463,VALID,116,VALID,0.393293,
2005-04-23, 02:31:00,VALID,917.952,VALID,0,VALID,100,VALID,0,VALID,19.8463,VALID,116,VALID,0.173828,
2005-04-23, 02:32:00,VALID,917.944,VALID,0,VALID,100,VALID,0,VALID,19.8423,VALID,116,VALID,0.269709,
2005-04-23, 02:33:00,VALID,917.922,VALID,0,VALID,100,VALID,-0.0169808,VALID,19.8396,VALID,116,VALID,0.42016,
2005-04-23, 02:34:00,VALID,917.902,VALID,0,VALID,100,VALID,0,VALID,19.8493,VALID,116,VALID,0.548437,
2005-04-23, 02:35:00,VALID,917.87,VALID,0,VALID,100,VALID,0,VALID,19.8495,VALID,116,VALID,0.346657,
2005-04-23, 02:36:00,VALID,917.851,VALID,0,VALID,100,VALID,0,VALID,19.8527,VALID,116,VALID,0.421689,
2005-04-23, 02:37:00,VALID,917.829,VALID,0,VALID,100,VALID,0,VALID,19.8463,VALID,116,VALID,0.403773,
2005-04-23, 02:38:00,VALID,917.823,VALID,0,VALID,100,VALID,0,VALID,19.856,VALID,116,VALID,0.46503,
2005-04-23, 02:39:00,VALID,917.809,VALID,0,VALID,100,VALID,0,VALID,19.859,VALID,121,VALID,0.613735,
2005-04-23, 02:40:00,VALID,917.796,VALID,0,VALID,100,VALID,0,VALID,19.8527,VALID,122,VALID,0.332386,
2005-04-23, 02:41:00,VALID,917.786,VALID,0,VALID,100,VALID,0,VALID,19.8423,VALID,122,VALID,0.258594,
2005-04-23, 02:42:00,VALID,917.772,VALID,0,VALID,100,VALID,-0.0169808,VALID,19.8431,VALID,122,VALID,0.394531,
2005-04-23, 02:43:00,VALID,917.758,VALID,0,VALID,100,VALID,0,VALID,19.8398,VALID,122,VALID,0.594477,
2005-04-23, 02:44:00,VALID,917.751,VALID,0,VALID,100,VALID,0,VALID,19.8237,VALID,122,VALID,0.423438,
2005-04-23, 02:45:00,VALID,917.738,VALID,0,VALID,100,VALID,0,VALID,19.8103,VALID,122,VALID,0.45348,
2005-04-23, 02:46:00,VALID,917.747,VALID,0,VALID,100,VALID,0,VALID,19.8041,VALID,122,VALID,0.704241,
2005-04-23, 02:47:00,VALID,917.731,VALID,0,VALID,100,VALID,0.0169808,VALID,19.7976,VALID,110,VALID,0.843555,
2005-04-23, 02:48:00,VALID,917.723,VALID,0,VALID,100,VALID,0,VALID,19.7946,VALID,104,VALID,0.762463,
2005-04-23, 02:49:00,VALID,917.715,VALID,0,VALID,100,VALID,0.0169808,VALID,19.7849,VALID,104,VALID,0.676962,
2005-04-23, 02:50:00,VALID,917.716,VALID,0,VALID,100,VALID,0,VALID,19.7752,VALID,101,VALID,0.650298,
2005-04-23, 02:51:00,VALID,917.717,VALID,0,VALID,100,VALID,-0.0169808,VALID,19.7621,VALID,95,VALID,0.271307,
2005-04-23, 02:52:00,VALID,917.716,VALID,0,VALID,100,VALID,0,VALID,19.7594,VALID,95,VALID,0.303711,
2005-04-23, 02:53:00,VALID,917.735,VALID,0,VALID,100,VALID,0.0169808,VALID,19.7526,VALID,94,VALID,0.240141,
2005-04-23, 02:54:00,VALID,917.729,VALID,0,VALID,100,VALID,0,VALID,19.7464,VALID,92,VALID,0.244496,
2005-04-23, 02:55:00,VALID,917.736,VALID,0,VALID,100,VALID,0,VALID,19.7367,VALID,68,VALID,0.401972,
2005-04-23, 02:56:00,VALID,917.739,VALID,0,VALID,100,VALID,-0.0169808,VALID,19.7201,VALID,60,VALID,0.328697,
2005-04-23, 02:57:00,VALID,917.731,VALID,0,VALID,100,VALID,-0.0169808,VALID,19.7305,VALID,60,VALID,0.112995,
2005-04-23, 02:58:00,VALID,917.734,VALID,0,VALID,100,VALID,0,VALID,19.7303,VALID,60,VALID,0,
2005-04-23, 02:59:00,VALID,917.736,VALID,0,VALID,100,VALID,-0.0169808,VALID,19.7238,VALID,60,VALID,0.0117188,
2005-04-23, 03:00:00,VALID,917.732,VALID,0,VALID,100,VALID,-0.0169808,VALID,19.7171,VALID,61,VALID,0.375727,
2005-04-23, 03:01:00,VALID,917.736,VALID,0,VALID,100,VALID,-0.0169808,VALID,19.7201,VALID,64,VALID,0.49256,
2005-04-23, 03:02:00,VALID,917.723,VALID,0,VALID,100,VALID,0,VALID,19.7397,VALID,65,VALID,0.505022,
2005-04-23, 03:03:00,VALID,917.721,VALID,0,VALID,100,VALID,0,VALID,19.7467,VALID,65,VALID,0.610119,
2005-04-23, 03:04:00,VALID,917.733,VALID,0,VALID,100,VALID,0,VALID,19.7626,VALID,65,VALID,0.625744,
2005-04-23, 03:05:00,VALID,917.732,VALID,0,VALID,100,VALID,0,VALID,19.769,VALID,65,VALID,0.580487,
2005-04-23, 03:06:00,VALID,917.737,VALID,0,VALID,100,VALID,-0.0339617,VALID,19.7656,VALID,65,VALID,0.407051,
2005-04-23, 03:07:00,VALID,917.747,VALID,0,VALID,100,VALID,0,VALID,19.7464,VALID,63,VALID,0.379687,
2005-04-23, 03:08:00,VALID,917.743,VALID,0,VALID,100,VALID,0,VALID,19.704,VALID,49,VALID,0.687137,
2005-04-23, 03:09:00,VALID,917.745,VALID,0,VALID,100,VALID,0,VALID,19.658,VALID,47,VALID,0.553499,
2005-04-23, 03:10:00,VALID,917.728,VALID,0,VALID,100,VALID,0.0169808,VALID,19.6751,VALID,47,VALID,0.359747,
2005-04-23, 03:11:00,VALID,917.724,VALID,0,VALID,100,VALID,0,VALID,19.665,VALID,47,VALID,0.233445,
2005-04-23, 03:12:00,VALID,917.718,VALID,0,VALID,100,VALID,0,VALID,19.6848,VALID,47,VALID,0.0133929,
2005-04-23, 03:13:00,VALID,917.709,VALID,0,VALID,100,VALID,0,VALID,19.6948,VALID,47,VALID,0,
2005-04-23, 03:14:00,VALID,917.691,VALID,0,VALID,100,VALID,0,VALID,19.6784,VALID,47,VALID,0,
2005-04-23, 03:15:00,VALID,917.667,VALID,0,VALID,100,VALID,0,VALID,19.6687,VALID,47,VALID,0,
2005-04-23, 03:16:00,VALID,917.648,VALID,0,VALID,100,VALID,0,VALID,19.6687,VALID,47,VALID,0,
2005-04-23, 03:17:00,VALID,917.633,VALID,0,VALID,100,VALID,0,VALID,19.6719,VALID,47,VALID,0,
2005-04-23, 03:18:00,VALID,917.618,VALID,0,VALID,100,VALID,0,VALID,19.6722,VALID,47,VALID,0,
2005-04-23, 03:19:00,VALID,917.601,VALID,0,VALID,100,VALID,0,VALID,19.6622,VALID,47,VALID,0,
2005-04-23, 03:20:00,VALID,917.595,VALID,0,VALID,100,VALID,-0.0169808,VALID,19.6528,VALID,47,VALID,0,
2005-04-23, 03:21:00,VALID,917.607,VALID,0,VALID,100,VALID,-0.0509425,VALID,19.6429,VALID,47,VALID,0,
2005-04-23, 03:22:00,VALID,917.611,VALID,0,VALID,100,VALID,-0.0509425,VALID,19.6468,VALID,47,VALID,0,
2005-04-23, 03:23:00,VALID,917.621,VALID,0,VALID,100,VALID,-0.0169808,VALID,19.6597,VALID,47,VALID,0,
2005-04-23, 03:24:00,VALID,917.634,VALID,0,VALID,100,VALID,-0.0169808,VALID,19.6622,VALID,47,VALID,0.21875,
2005-04-23, 03:25:00,VALID,917.637,VALID,0,VALID,100,VALID,-0.0169808,VALID,19.6754,VALID,47,VALID,0.443132,
2005-04-23, 03:26:00,VALID,917.642,VALID,0,VALID,100,VALID,-0.0339617,VALID,19.7114,VALID,49,VALID,0.530208,
2005-04-23, 03:27:00,VALID,917.647,VALID,0,VALID,100,VALID,-0.0169808,VALID,19.7181,VALID,51,VALID,0.556504,
2005-04-23, 03:28:00,VALID,917.655,VALID,0,VALID,100,VALID,0,VALID,19.7012,VALID,55,VALID,0.525254,
2005-04-23, 03:29:00,VALID,917.642,VALID,0,VALID,100,VALID,-0.0169808,VALID,19.6982,VALID,99,VALID,0.708333,
2005-04-23, 03:30:00,VALID,917.634,VALID,0,VALID,100,VALID,-0.0169808,VALID,19.7184,VALID,103,VALID,0.674851,
2005-04-23, 03:31:00,VALID,917.635,VALID,0,VALID,100,VALID,0,VALID,19.7045,VALID,103,VALID,0.543636,
2005-04-23, 03:32:00,VALID,917.639,VALID,0,VALID,100,VALID,-0.0169808,VALID,19.705,VALID,106,VALID,0.524479,
2005-04-23, 03:33:00,VALID,917.651,VALID,0,VALID,100,VALID,0,VALID,19.6851,VALID,140,VALID,0.834413,
2005-04-23, 03:34:00,VALID,917.651,VALID,0,VALID,100,VALID,0,VALID,19.6883,VALID,145,VALID,0.817769,
2005-04-23, 03:35:00,VALID,917.658,VALID,0,VALID,100,VALID,0.0169808,VALID,19.6814,VALID,147,VALID,0.831174,
2005-04-23, 03:36:00,VALID,917.692,VALID,0,VALID,100,VALID,0.0169808,VALID,19.6883,VALID,160,VALID,0.986506,
2005-04-23, 03:37:00,VALID,917.714,VALID,0,VALID,100,VALID,0,VALID,19.6851,VALID,163,VALID,0.764881,
2005-04-23, 03:38:00,VALID,917.724,VALID,0,VALID,100,VALID,0,VALID,19.6853,VALID,159,VALID,0.848704,
2005-04-23, 03:39:00,VALID,917.749,VALID,0,VALID,100,VALID,0,VALID,19.6819,VALID,162,VALID,0.86044,
2005-04-23, 03:40:00,VALID,917.755,VALID,0,VALID,100,VALID,0,VALID,19.6913,VALID,155,VALID,0.879278,
2005-04-23, 03:41:00,VALID,917.756,VALID,0,VALID,100,VALID,-0.0169808,VALID,19.7012,VALID,147,VALID,0.702567,
2005-04-23, 03:42:00,VALID,917.749,VALID,0,VALID,100,VALID,0,VALID,19.6948,VALID,150,VALID,0.68064,
2005-04-23, 03:43:00,VALID,917.752,VALID,0,VALID,100,VALID,-0.0169808,VALID,19.705,VALID,148,VALID,0.56715,
2005-04-23, 03:44:00,VALID,917.745,VALID,0,VALID,100,VALID,-0.0169808,VALID,19.7015,VALID,133,VALID,0.645275,
2005-04-23, 03:45:00,VALID,917.735,VALID,0,VALID,100,VALID,0,VALID,19.701,VALID,129,VALID,0.605769,
2005-04-23, 03:46:00,VALID,917.741,VALID,0,VALID,100,VALID,-0.0509425,VALID,19.7141,VALID,103,VALID,0.766183,